カタログに戻る

CZ-6A DEB

運用中PO
NORAD 54517·DEBRIS·🇨🇳 China

打ち上げ Nov 11, 2022 から Taiyuan Satellite Launch Center

Loading…

次のパス (今後24時間)

TLE

最新Source: Space-Track

元期: Sep 13, 2026, 17:49 UTC

1 54517U 22151JV  26256.74297568  .00008648  00000-0  11319-2 0  9995
2 54517  98.6246 334.4020 0062401 347.9068  12.0639 14.79302067203572

AllMySatでCZ-6A DEBをリアルタイム追跡

Download on the App Store